Theta_e
330 330 331 330 328 328 328 328 329 328 326 326 325 323 321 321 321 322 323 323 323 323 322 323 323 323 322 322 322 322 321 323 326 326 326 327 328 328 327 327 327 328 327 326 325 325 326 325 324 323 323 323 323 320 319 318 317 317 314 309 304 302 304
329 328 329 328 327 327 328 328 329 329 328 327 326 324 323 322 322 321 322 323 323 323 322 322 322 322 322 321 321 322 321 322 325 325 325 326 327 327 327 327 327 327 327 326 324 324 324 325 325 321 319 320 322 319 316 315 315 312 307 302 299 298 299
329 329 329 328 327 328 329 329 329 329 329 329 328 326 326 324 322 321 322 323 323 322 323 323 322 321 321 320 321 321 320 320 322 324 324 325 326 326 327 327 326 327 327 326 325 325 323 323 323 320 316 317 319 317 313 312 310 306 303 301 298 296 296
330 330 330 330 329 329 329 329 329 328 329 330 329 328 326 325 323 321 322 322 322 322 322 322 322 321 320 319 320 320 319 319 321 323 324 324 325 325 326 327 327 326 327 326 326 325 324 323 322 321 317 314 315 313 309 308 306 304 303 302 299 297 295
330 329 330 330 330 330 328 328 328 328 328 329 329 328 326 326 324 321 321 321 321 322 322 322 322 321 320 319 319 320 319 319 320 323 324 323 324 325 325 326 326 326 326 326 327 325 324 322 321 319 315 313 313 310 307 305 304 303 303 301 300 298 297
332 330 329 330 330 330 329 328 328 329 329 329 329 329 327 326 324 322 321 321 321 321 321 322 320 320 320 318 318 319 319 319 319 321 322 323 323 324 324 324 324 325 325 326 326 326 324 322 319 316 314 312 311 309 307 306 304 304 302 301 301 300 300
331 331 329 329 329 329 329 329 329 329 330 329 329 328 327 326 325 323 322 321 321 320 320 320 319 319 319 318 317 318 318 318 319 319 320 321 322 322 323 323 323 323 325 325 325 326 325 323 318 314 314 313 311 309 308 306 305 305 303 301 301 302 302
330 331 331 329 327 327 328 328 328 328 329 329 329 328 327 327 325 323 321 321 320 320 320 319 318 318 318 316 316 318 318 318 318 318 318 320 321 322 322 323 322 322 323 323 325 326 325 323 319 315 314 314 313 312 309 306 305 306 304 301 301 302 302
329 330 331 330 327 327 327 326 327 327 327 329 329 327 327 327 325 322 321 320 320 320 319 318 317 318 317 316 316 317 318 318 318 318 318 319 320 322 322 323 321 321 322 323 323 324 324 323 320 316 313 313 314 313 310 307 307 305 305 303 301 301 302
329 329 330 329 329 329 327 326 326 326 326 328 327 325 325 326 325 323 321 321 321 319 317 317 317 318 317 316 317 317 317 317 317 318 318 317 319 321 321 321 321 321 322 323 322 323 324 323 320 316 313 313 313 312 311 310 308 305 304 304 302 301 301
329 329 330 331 331 330 328 326 326 325 326 327 327 325 325 325 325 324 322 321 321 319 318 318 317 317 317 316 316 317 318 318 317 318 318 317 317 319 320 320 321 320 320 321 322 322 323 323 320 316 314 314 313 311 310 309 308 306 304 304 303 302 301
329 329 330 331 330 330 329 328 327 326 326 326 327 326 325 324 325 324 321 321 321 319 318 318 316 317 317 316 315 316 318 318 317 317 318 317 317 318 319 319 319 318 318 321 322 322 323 323 322 318 316 316 315 311 309 309 310 308 305 304 305 304 303
328 329 329 329 328 329 329 329 328 327 326 326 327 327 325 325 325 324 321 321 321 320 319 318 317 317 318 316 314 315 317 318 317 317 318 317 317 317 318 318 318 317 317 319 320 322 323 323 322 320 319 320 319 314 310 310 311 309 306 306 306 304 303
327 328 328 328 328 328 328 329 328 328 327 326 326 326 326 325 324 323 322 320 321 321 320 319 318 318 317 316 315 315 316 316 316 316 317 317 317 316 316 317 317 316 316 316 315 318 322 323 323 322 321 321 321 317 312 311 311 309 308 307 306 304 303
327 327 327 327 328 328 328 328 328 328 327 327 326 326 326 325 323 323 323 322 322 322 321 320 318 318 317 315 316 316 316 315 314 314 315 316 317 315 314 315 315 313 313 314 313 315 319 322 323 323 322 322 322 319 314 312 311 310 308 306 304 304 303
327 327 327 327 328 328 327 327 327 328 328 327 326 326 326 326 324 323 323 323 323 323 323 320 318 318 317 315 315 314 315 314 311 311 314 315 315 315 314 314 314 312 311 313 314 314 317 321 323 323 322 322 322 320 316 314 313 310 307 305 304 303 303
325 325 326 327 327 328 328 327 327 327 328 327 327 326 325 325 324 324 324 324 323 322 323 321 318 318 317 316 314 312 313 313 309 309 312 314 315 315 314 314 314 312 312 314 316 316 316 319 321 322 322 322 322 320 317 315 315 312 308 305 304 304 304
322 323 324 325 326 327 328 327 328 328 328 328 327 326 325 325 324 324 324 324 323 322 322 320 319 318 317 316 315 312 312 312 308 308 312 314 313 314 314 314 313 312 312 315 317 317 317 317 319 321 322 321 321 320 317 315 315 313 310 306 304 304 305
320 321 321 323 323 325 326 326 327 328 328 328 327 326 325 325 325 325 324 323 323 322 321 320 318 318 317 316 315 312 310 310 307 308 311 312 312 312 313 313 313 312 312 314 316 316 317 317 318 320 321 321 321 319 317 316 314 313 311 307 306 305 305
320 320 321 322 323 323 324 324 325 326 327 328 327 326 325 325 324 324 324 323 322 322 321 320 319 318 317 316 314 311 308 308 308 309 311 312 311 312 312 312 312 312 312 314 316 316 316 317 317 320 321 320 320 319 317 315 314 312 311 308 307 307 306
316 318 321 323 322 322 323 324 324 325 326 326 327 326 325 324 324 324 324 323 322 322 321 320 320 318 317 315 313 310 307 306 309 312 312 312 312 311 312 312 312 312 311 313 315 315 315 315 316 319 321 320 320 319 317 315 313 312 311 309 308 308 307
313 316 319 323 324 322 321 322 323 323 324 325 326 326 325 323 322 322 323 323 322 321 321 321 320 319 317 314 312 310 307 306 309 311 311 311 311 311 311 312 312 312 311 311 313 314 314 314 314 316 318 319 320 319 317 316 314 312 311 309 309 309 308
312 314 317 319 322 322 320 320 321 321 322 324 325 325 325 324 322 321 321 322 322 321 321 320 320 319 317 314 312 310 307 306 309 310 310 310 311 311 311 311 311 311 309 308 310 312 312 313 313 313 314 317 319 319 318 317 315 312 311 310 309 309 308
311 312 313 314 315 316 317 318 319 318 318 321 323 324 324 324 324 323 322 322 322 320 319 319 319 318 316 314 313 310 307 307 309 310 310 310 310 310 311 310 308 305 304 304 307 309 310 311 312 312 312 313 315 316 317 316 315 312 311 310 309 309 308
311 310 311 312 312 313 313 314 316 317 315 316 319 321 322 322 323 322 322 322 321 321 320 318 317 316 315 313 312 311 308 307 309 309 309 310 310 309 309 308 304 302 301 302 303 305 308 309 310 311 310 310 311 312 313 314 313 312 311 310 310 309 309
309 309 309 310 310 311 311 311 314 317 316 315 316 318 320 321 322 321 321 321 321 321 320 318 315 314 315 314 312 311 310 308 308 308 308 309 309 308 308 307 304 302 302 301 301 302 303 305 307 308 308 309 309 309 310 311 312 312 311 311 310 310 309
308 308 308 308 308 310 311 311 312 315 317 316 316 317 318 320 321 322 321 321 321 321 320 318 315 313 314 314 313 311 311 309 308 307 308 308 308 307 308 307 306 305 304 303 302 301 301 302 303 305 305 306 306 307 308 309 310 311 311 311 312 311 311
307 308 308 308 308 309 310 311 311 312 315 316 317 318 318 319 320 321 321 321 321 321 320 319 317 313 311 313 314 312 311 310 308 307 307 307 307 307 308 308 307 306 305 303 303 304 302 301 301 301 302 303 303 304 305 307 309 310 310 311 311 312 311
308 307 307 306 308 308 309 309 308 309 311 315 317 317 318 319 320 320 321 321 321 321 321 320 319 315 310 310 312 312 312 310 308 307 306 306 307 307 308 308 307 306 305 303 304 305 304 302 302 301 301 302 301 301 302 305 307 309 309 310 310 311 311
307 306 306 306 306 306 306 307 306 307 310 314 316 317 317 319 319 318 319 319 320 321 321 320 320 318 313 310 309 311 312 311 308 306 305 305 306 307 308 308 307 306 305 303 304 305 305 304 304 304 303 302 300 298 300 304 307 308 309 309 309 309 309
305 305 305 305 305 305 305 306 306 307 311 315 317 317 316 318 318 318 318 318 318 319 320 321 321 320 317 313 309 310 312 310 307 306 305 305 306 307 307 307 306 306 305 303 303 306 306 305 305 305 304 302 298 295 297 304 307 308 308 308 308 308 308
305 304 304 303 304 305 306 306 306 307 309 313 316 317 317 317 317 317 319 320 318 318 319 321 321 321 319 316 312 311 311 309 307 306 306 305 306 306 306 305 305 305 304 303 303 305 305 305 305 305 304 302 298 293 294 300 305 307 308 307 307 307 308
302 302 303 303 304 304 305 306 306 306 307 309 312 314 314 313 315 315 317 319 318 318 319 320 321 321 320 319 315 312 310 308 306 306 305 305 305 305 304 304 304 304 303 302 302 303 304 304 304 304 304 303 299 294 292 294 298 302 306 307 307 307 306
301 302 303 303 304 305 305 306 305 305 305 306 306 307 306 307 310 313 315 317 317 317 319 320 320 320 321 320 317 314 311 308 306 305 306 305 305 304 304 304 303 303 303 302 302 302 301 302 303 304 304 303 300 296 294 294 295 296 298 302 306 307 306
302 303 304 304 304 305 305 305 304 304 304 303 303 303 303 304 306 308 310 312 312 313 316 319 318 317 319 320 318 315 312 308 304 304 305 305 305 305 305 304 303 303 302 302 302 301 298 299 302 304 303 303 302 300 299 299 300 298 296 296 298 301 304
302 303 303 303 303 304 304 303 303 303 302 302 302 303 303 303 304 305 305 307 306 307 310 315 316 314 317 320 318 316 313 308 304 304 307 306 305 306 306 306 304 303 303 302 303 301 297 296 300 304 304 302 303 302 301 301 303 302 301 298 297 297 298
301 301 301 301 301 303 303 302 301 301 301 302 302 302 302 303 303 304 304 305 305 305 305 309 312 313 315 318 319 318 316 311 305 304 307 307 306 306 307 307 305 304 304 303 302 301 297 294 298 303 303 303 304 302 300 301 303 303 303 302 301 300 299
Wind_Speed
11 12 10 9 9 8 7 6 6 6 4 4 4 5 4 4 5 5 4 3 3 4 4 5 6 6 6 6 6 9 9 6 7 8 8 7 5 5 4 3 2 8 14 9 9 9 4 1 2 5 8 11 15 17 14 12 11 11 10 10 10 9 9
11 11 9 9 9 9 9 8 7 7 6 6 5 5 6 6 6 5 3 2 2 3 4 4 4 5 6 5 5 7 8 6 6 7 6 7 5 5 3 2 4 8 9 6 10 10 5 4 2 2 6 9 12 14 14 13 12 11 10 10 10 9 8
12 11 9 10 11 11 12 11 9 9 8 8 7 7 7 7 6 5 3 3 2 2 2 2 2 4 4 5 5 6 7 7 6 5 6 5 4 4 2 1 3 6 5 4 9 8 5 4 3 4 7 8 8 10 13 14 13 11 11 11 11 11 9
12 12 13 13 14 13 13 12 11 11 11 10 9 8 8 7 5 4 4 4 3 3 1 1 2 3 3 3 4 5 5 7 5 3 4 4 3 2 2 1 3 5 4 5 10 11 8 5 5 4 6 10 12 11 13 14 14 13 12 12 12 13 12
12 13 14 14 14 13 13 13 12 13 13 12 11 10 8 7 5 3 4 5 4 3 2 1 1 2 2 2 2 3 3 5 4 1 2 4 3 1 2 1 1 5 6 6 10 14 12 11 12 7 8 13 11 10 15 16 14 14 13 13 13 13 14
13 13 13 12 12 11 11 12 13 15 15 14 12 11 9 7 6 4 3 4 4 4 3 2 3 2 1 1 2 1 1 2 3 2 1 2 2 1 1 1 1 3 4 5 7 11 12 15 17 10 10 13 10 11 14 14 14 13 13 13 12 13 14
16 16 15 14 12 12 12 12 13 15 16 16 14 11 10 8 7 6 4 4 4 5 4 3 4 2 2 1 2 2 1 1 2 2 2 2 2 2 2 2 2 3 3 4 5 8 12 16 20 15 10 10 12 14 10 10 13 10 9 12 11 11 12
19 19 18 18 16 16 16 16 15 15 15 17 15 12 10 9 8 8 6 4 5 6 5 4 4 3 3 1 2 3 1 1 1 2 2 2 1 3 3 2 2 3 3 2 4 6 12 18 22 22 17 10 8 9 7 7 9 7 11 13 10 10 11
22 22 21 20 18 18 19 18 18 17 14 13 12 10 11 11 9 9 8 6 6 7 6 6 5 4 4 3 3 3 2 2 1 1 1 1 1 3 4 3 2 2 2 2 2 4 11 19 22 24 24 18 10 5 4 5 4 5 14 15 10 10 10
21 22 21 20 19 20 20 20 19 18 14 11 10 11 13 13 11 11 9 8 8 8 7 7 5 4 4 4 5 4 3 3 2 2 2 1 1 3 4 3 3 2 1 2 2 4 10 18 22 22 23 22 18 10 4 4 4 6 13 14 11 11 10
18 19 18 18 19 19 19 19 19 17 15 14 14 15 15 14 13 12 10 9 9 9 9 8 7 6 4 5 6 5 5 4 2 2 3 2 2 4 4 4 4 2 1 2 2 4 9 16 20 21 20 19 20 17 10 5 5 10 17 15 11 13 14
17 17 16 18 19 19 18 18 18 16 16 15 15 15 14 14 12 11 11 11 10 10 10 9 9 8 6 5 5 5 6 5 2 1 3 2 3 4 3 5 6 2 0 1 1 3 8 15 18 19 19 15 15 17 17 12 5 10 20 18 13 15 16
17 17 18 19 20 19 18 18 18 18 17 16 16 16 16 16 12 10 11 12 12 12 12 12 12 11 7 5 4 4 6 6 3 1 3 4 3 2 2 5 6 3 1 2 2 3 8 14 17 17 17 14 12 14 19 17 7 8 18 18 16 17 16
17 17 18 18 18 18 17 18 18 18 17 17 17 17 18 18 15 11 10 12 13 14 14 14 14 12 8 5 4 5 5 6 6 3 3 4 3 1 2 5 5 2 2 2 1 4 8 13 16 17 16 14 12 14 19 18 12 10 12 15 18 20 18
17 16 17 17 18 18 17 17 17 16 17 18 18 19 20 20 16 11 11 12 13 16 17 16 14 12 9 6 6 7 6 6 7 7 5 5 5 3 3 6 5 2 3 3 2 4 7 11 15 16 16 14 12 15 19 18 16 14 11 15 21 22 20
19 17 17 17 18 17 16 16 15 15 16 18 18 19 19 20 16 13 12 13 14 16 18 17 15 13 10 7 7 9 8 6 5 6 6 4 5 6 5 6 5 3 4 4 3 3 7 11 14 15 15 15 13 15 19 19 17 16 16 18 22 24 22
23 21 20 18 17 17 15 14 14 16 17 18 18 18 18 18 17 14 14 15 16 17 17 17 16 14 11 8 7 8 9 7 4 5 6 4 4 6 7 6 5 4 4 2 1 2 5 9 13 15 15 14 14 15 19 19 17 19 20 20 22 24 24
26 25 23 21 19 17 16 14 14 15 16 17 18 18 17 17 17 17 17 17 17 17 16 16 17 15 13 10 8 8 9 8 5 5 6 5 5 6 7 6 6 5 4 1 2 3 2 5 10 15 15 13 15 17 19 19 17 18 22 24 23 23 23
27 26 25 23 21 19 17 16 15 14 14 16 18 19 19 18 18 19 19 17 16 17 16 16 18 17 14 11 8 8 10 9 7 7 6 6 7 7 6 6 6 6 5 3 1 2 1 2 8 15 16 14 16 19 19 19 18 17 21 24 23 22 23
26 26 26 25 24 22 19 17 16 15 14 15 17 19 20 20 19 20 21 20 18 17 17 17 19 18 15 13 10 8 9 10 9 8 8 8 8 8 7 6 6 6 6 4 1 1 1 2 5 13 17 15 17 19 19 19 19 18 20 22 20 20 23
24 24 24 24 25 25 23 20 17 16 15 15 17 20 21 21 20 20 21 21 20 19 18 18 20 20 17 14 12 9 8 10 10 9 9 9 9 8 7 6 6 6 5 4 2 1 2 1 2 11 17 17 18 19 20 20 19 19 21 21 18 18 20
23 23 23 23 24 25 25 23 20 18 16 15 15 17 19 20 21 20 20 21 22 21 20 19 20 21 20 16 14 11 8 9 11 10 9 9 9 9 8 7 6 6 5 5 3 1 3 3 3 6 13 17 18 20 20 19 19 20 21 20 17 16 18
25 25 24 23 24 25 26 25 23 20 18 17 15 15 15 17 18 20 22 22 22 21 21 21 21 22 22 18 15 13 10 10 12 11 11 11 10 9 8 7 6 6 6 5 4 3 3 4 4 6 7 10 16 20 20 19 20 20 21 21 20 18 18
27 27 25 25 25 26 26 26 25 23 22 20 18 16 14 15 15 17 18 19 20 21 21 20 21 23 22 19 16 14 12 11 12 13 13 13 12 10 9 7 5 6 6 5 5 4 4 4 4 6 7 7 9 14 15 17 20 21 22 22 21 21 21
29 29 28 28 27 27 27 26 25 25 24 22 20 19 17 15 15 15 15 14 16 19 19 19 21 24 22 19 17 15 13 12 14 14 15 15 14 12 10 7 5 6 6 5 5 5 5 5 5 5 6 7 8 9 9 11 15 19 22 22 21 22 22
30 31 32 32 30 29 29 29 27 25 25 24 22 21 21 18 16 15 13 12 13 17 17 16 20 25 22 19 18 16 14 14 15 15 16 16 14 12 11 9 7 7 7 6 5 5 5 5 5 5 5 6 6 7 7 7 9 12 16 18 20 22 22
31 32 34 35 34 32 31 31 30 27 25 25 24 23 22 21 18 15 14 13 13 14 14 13 18 24 23 20 19 17 15 15 15 16 16 16 14 14 13 11 8 7 8 8 7 5 5 5 6 6 5 5 5 5 5 5 5 6 7 9 13 18 20
32 34 34 35 35 34 32 31 31 29 26 25 25 24 23 21 19 17 16 14 15 15 14 13 15 21 24 21 19 18 16 15 16 17 17 16 15 15 15 13 10 8 7 8 8 6 6 6 6 6 6 5 5 5 4 4 4 4 4 5 7 12 15
32 33 34 35 36 35 33 33 33 33 29 25 24 23 22 21 19 18 17 15 15 15 14 14 15 19 23 23 20 19 18 16 17 18 18 17 16 16 16 14 11 9 8 8 10 8 7 7 7 6 6 5 5 6 6 6 6 6 6 6 7 9 11
31 32 33 35 35 35 34 34 36 36 30 24 22 22 22 21 17 16 16 16 15 14 13 13 14 17 21 24 22 20 19 18 18 18 18 17 15 16 17 14 12 11 9 9 10 10 9 8 8 7 5 4 4 6 9 10 10 10 10 10 10 11 12
31 32 33 33 34 35 35 35 37 37 31 25 22 22 21 20 17 14 15 16 16 16 15 13 13 15 19 23 24 22 20 19 20 20 18 16 15 16 16 14 13 13 11 10 10 11 10 9 9 8 6 4 4 7 10 13 13 13 13 14 14 15 15
31 30 32 33 33 34 35 35 37 36 32 28 26 24 23 23 21 18 16 16 16 16 17 16 14 14 16 20 24 24 22 21 21 21 19 17 17 16 15 14 14 13 12 10 11 12 12 11 11 10 7 5 4 6 10 13 14 14 15 15 15 15 15
31 30 30 33 33 33 33 34 36 36 33 31 30 29 30 29 26 24 21 17 16 16 16 16 15 14 15 20 24 25 24 24 23 23 22 20 19 18 16 14 14 13 12 11 11 12 12 13 12 11 8 5 4 6 9 11 12 13 13 14 15 15 14
31 30 31 32 32 32 32 32 33 34 35 35 33 33 34 33 30 28 26 21 20 19 16 15 17 18 17 19 24 26 26 26 25 24 24 23 22 20 18 16 16 14 13 13 12 11 12 14 14 12 9 6 4 5 8 9 10 10 12 14 14 14 14
30 31 31 32 32 32 32 32 31 32 35 37 36 35 36 36 34 32 30 27 26 26 22 18 19 22 22 18 19 26 27 26 25 25 25 25 23 21 19 17 17 15 14 14 14 12 11 14 15 13 10 8 5 5 7 9 10 9 9 11 13 14 14
31 31 31 32 33 33 33 32 31 31 33 35 36 36 37 37 36 35 34 33 33 32 26 20 19 21 24 22 16 20 26 26 22 21 23 25 24 22 20 18 17 16 15 15 15 12 11 15 16 13 11 10 9 7 8 9 9 9 8 9 10 11 12
31 31 31 32 32 31 32 33 32 32 33 33 34 35 36 36 35 33 33 35 36 36 31 24 20 20 21 23 20 15 21 25 21 17 18 21 23 23 21 18 17 17 15 15 15 13 12 15 17 15 12 11 11 10 10 10 10 9 9 9 9 9 10
Wind_Direction
304 308 301 281 279 288 292 295 298 305 300 285 316 342 338 327 333 346 12 18 5 34 57 80 85 75 71 65 50 34 21 17 17 12 14 19 23 21 34 78 92 163 163 156 161 154 129 120 131 130 138 139 132 125 128 133 126 113 97 88 90 93 97
301 311 300 270 274 286 290 287 280 285 291 286 295 315 326 330 329 332 10 36 356 29 65 93 85 76 75 62 56 42 24 17 17 8 12 23 19 9 17 76 107 154 166 166 164 155 131 140 150 129 132 135 127 119 128 134 119 108 96 87 91 90 92
297 302 299 281 280 283 284 283 279 282 287 287 290 299 315 330 335 325 355 36 354 354 52 83 55 64 71 49 55 55 24 11 14 6 6 15 12 11 23 157 144 158 166 176 177 170 149 136 141 157 143 135 127 116 128 133 120 110 100 90 87 84 85
297 298 300 296 288 281 279 280 283 287 290 290 288 291 304 320 332 315 318 348 338 313 340 44 26 42 51 29 49 62 26 6 6 1 9 10 4 35 61 148 197 201 200 211 203 188 172 148 137 146 133 127 124 120 130 131 121 114 104 93 85 80 80
294 295 301 306 300 289 282 281 283 287 289 286 284 287 293 302 318 324 301 309 318 309 306 348 351 15 35 11 44 70 43 16 17 15 13 7 360 54 70 58 258 241 236 238 218 200 192 172 155 143 132 130 118 121 135 131 121 114 104 94 87 83 82
290 280 284 298 304 301 293 291 292 292 289 279 275 281 283 284 296 308 295 283 290 300 289 281 298 292 214 324 2 73 71 17 30 43 7 343 337 355 10 342 321 278 253 249 225 211 205 173 154 148 147 142 129 133 140 134 124 114 104 99 93 91 88
295 286 283 285 293 297 293 294 297 298 294 282 273 275 275 272 280 284 281 269 267 278 272 269 290 271 188 269 299 197 178 359 33 44 35 340 297 254 252 274 304 318 285 265 245 222 209 178 161 158 149 131 134 143 146 143 136 122 112 113 108 103 94
290 290 288 283 286 293 293 292 291 294 295 285 272 267 263 261 269 271 264 259 258 262 257 258 270 243 199 217 224 190 173 164 125 30 39 39 285 219 219 233 266 327 339 300 273 237 214 192 176 169 157 134 138 148 142 148 148 140 140 131 121 119 105
293 292 293 290 288 293 294 290 284 283 288 283 270 267 263 255 260 263 251 240 246 251 247 247 249 226 209 212 200 193 214 222 220 314 342 54 116 183 198 213 235 296 341 337 277 236 216 200 187 179 168 157 155 148 129 150 144 139 151 146 137 138 123
294 294 297 298 295 294 293 290 286 281 280 271 257 261 262 255 257 262 252 240 240 238 236 239 234 215 213 222 215 207 217 236 261 281 260 245 200 174 176 196 221 249 312 335 274 225 216 203 191 186 181 171 164 153 133 169 166 163 168 162 153 154 148
294 291 293 299 300 297 294 293 290 283 277 266 251 249 248 245 255 264 254 242 236 231 232 236 231 222 226 231 224 217 220 236 269 259 232 222 203 191 178 188 198 204 255 317 279 223 210 205 196 192 192 187 177 167 155 156 173 180 178 176 176 171 162
307 299 297 301 302 300 296 293 288 278 273 267 255 245 235 232 248 265 254 241 239 240 238 237 236 233 243 254 238 221 219 232 268 234 213 200 197 203 199 196 193 184 183 202 225 221 204 201 199 197 198 201 194 181 166 152 155 186 182 184 191 180 167
321 314 309 306 304 302 298 293 287 278 271 265 257 248 236 230 239 258 257 246 243 246 243 240 238 234 240 263 257 228 217 227 246 177 171 175 188 202 185 186 184 166 124 148 180 217 205 201 202 201 201 201 201 194 177 159 142 171 183 190 188 176 169
337 329 323 320 315 312 307 298 291 283 274 267 262 254 246 241 242 248 253 249 244 247 249 243 235 231 239 257 254 241 231 234 243 232 187 188 200 225 187 179 179 182 170 150 192 227 211 206 207 206 207 206 202 198 186 170 148 146 173 190 182 171 170
355 347 340 335 329 324 316 304 295 288 281 274 266 259 252 249 248 243 240 244 244 248 253 246 230 227 240 247 235 231 234 248 250 234 222 220 213 210 194 182 181 214 219 204 233 238 221 212 211 212 214 214 208 199 194 181 159 144 152 172 173 172 175
7 1 353 345 340 336 326 313 303 297 292 285 274 265 258 252 248 241 235 240 246 250 254 245 229 229 238 238 232 229 230 245 252 226 219 229 222 212 200 189 190 211 226 235 252 237 221 215 216 219 218 217 213 201 197 192 173 156 153 163 173 177 179
17 10 4 356 349 345 338 326 313 304 298 290 277 269 263 253 246 239 235 240 247 253 254 240 225 228 234 238 249 244 230 228 232 219 207 195 195 199 199 199 205 215 226 235 193 180 207 216 219 223 220 215 212 201 194 195 187 172 163 163 175 182 183
24 19 12 5 358 353 346 337 324 311 300 290 279 272 265 255 248 243 239 241 244 248 250 235 223 226 230 238 256 250 232 223 216 210 200 196 203 200 202 207 204 214 233 231 123 130 173 221 217 218 216 209 205 199 192 192 190 180 173 170 175 184 187
24 22 18 12 5 359 351 344 336 325 309 293 282 276 267 259 254 248 243 243 243 245 246 237 226 225 225 231 242 244 236 225 213 211 213 221 227 217 211 213 205 212 233 244 142 106 82 270 222 210 209 207 201 196 192 191 188 182 180 176 175 183 189
19 17 15 14 12 7 0 352 341 332 318 299 286 280 271 264 265 260 251 248 245 244 244 239 229 224 221 224 229 233 233 223 208 209 214 217 219 218 217 215 213 222 232 241 262 110 81 331 237 205 202 204 201 196 192 190 187 184 181 177 176 182 188
14 12 9 9 11 11 8 4 355 343 329 308 294 287 278 270 270 268 259 252 248 247 247 241 230 221 215 216 219 222 225 217 203 199 208 212 211 214 216 213 217 230 237 240 255 192 138 82 212 203 201 203 202 198 196 191 187 187 184 180 181 184 184
15 11 7 4 5 5 5 6 4 357 346 330 313 300 289 279 275 275 271 260 249 249 252 248 236 223 214 209 210 215 219 211 202 204 213 209 202 205 208 208 215 232 248 249 242 188 148 135 128 181 199 207 206 200 196 194 191 189 184 183 186 186 183
18 12 9 5 2 359 359 359 359 359 354 344 331 315 300 290 284 281 282 276 267 266 268 259 243 226 215 210 209 211 212 202 198 209 215 205 198 203 205 207 222 236 246 242 221 190 161 153 129 124 158 195 204 199 195 195 196 192 186 186 190 187 185
16 11 7 3 1 358 356 354 353 353 352 348 340 328 311 297 290 283 278 278 277 280 285 273 246 223 212 211 210 208 208 199 196 208 217 213 209 209 205 210 229 227 217 207 194 184 168 161 150 128 125 140 170 184 190 195 196 192 188 188 191 190 190
9 6 2 359 356 353 353 353 351 350 350 349 344 339 330 314 302 292 280 270 259 260 274 272 240 217 210 210 209 209 209 202 199 210 219 218 213 210 207 211 216 203 191 182 182 185 176 167 163 151 139 134 137 147 164 180 189 190 190 189 190 193 198
5 2 359 357 354 349 347 348 348 346 346 347 345 343 342 336 324 312 297 280 256 249 262 263 231 214 211 211 209 212 212 206 205 212 216 214 211 212 212 211 203 188 180 178 179 184 184 177 173 169 160 153 148 142 141 149 167 184 192 195 197 200 202
4 360 356 355 354 351 347 345 346 346 342 342 344 343 344 344 340 329 312 293 272 259 264 261 230 214 212 213 212 213 214 211 210 211 212 213 217 218 216 212 204 190 181 181 182 185 194 193 185 181 176 168 163 158 153 150 147 157 179 197 207 210 207
4 1 358 356 356 356 353 349 349 349 344 340 340 342 343 345 345 338 326 309 289 273 265 261 240 218 212 214 216 215 213 212 212 212 213 219 223 221 217 213 208 200 192 185 182 187 201 202 195 191 187 182 180 178 176 176 163 145 145 165 197 208 206
5 3 1 0 360 0 358 354 352 351 346 341 341 344 346 346 348 346 339 328 309 287 264 252 245 226 214 212 215 216 215 213 213 212 213 219 223 219 215 213 208 204 204 195 189 192 204 205 198 193 189 183 184 186 181 176 167 152 141 145 163 180 183
8 5 3 1 1 2 2 360 358 355 351 345 342 346 350 353 353 352 349 345 334 314 285 258 247 235 221 215 214 216 217 215 212 211 212 216 220 214 210 211 209 205 206 205 197 194 201 209 202 193 192 188 185 184 176 167 159 151 146 144 149 155 159
9 6 2 359 359 1 2 2 2 1 358 353 344 342 349 355 356 352 347 346 346 335 316 291 266 245 230 220 217 218 220 216 210 208 210 212 211 206 204 206 210 210 209 208 201 197 204 213 207 199 204 204 189 181 176 168 159 153 151 150 149 151 154
6 5 1 357 358 360 1 3 5 5 3 357 348 342 345 350 353 352 348 344 343 337 327 317 297 267 241 226 220 220 222 219 211 206 205 202 199 200 203 206 211 215 214 209 203 203 210 217 212 207 213 211 192 184 182 177 170 163 159 157 156 157 158
0 1 359 356 357 360 2 4 8 10 10 8 3 358 355 353 350 349 349 349 345 337 329 329 326 303 265 237 224 221 221 220 215 208 202 199 197 199 205 211 214 216 216 212 209 210 216 220 216 212 213 213 194 179 176 173 175 177 174 169 166 166 166
359 1 0 358 357 1 4 5 9 14 15 14 13 11 7 4 360 356 354 354 353 350 344 343 345 334 302 255 227 219 221 221 220 214 205 201 202 204 208 214 215 214 216 215 214 216 218 216 215 213 211 205 178 166 164 156 158 172 183 184 181 177 175
3 4 4 3 2 3 5 7 11 15 14 12 12 11 8 7 6 6 5 3 360 358 355 350 352 348 329 293 240 220 221 222 222 219 211 204 204 208 213 217 215 214 217 217 215 220 216 209 209 211 206 195 178 169 164 151 145 151 167 182 188 188 186
6 6 6 7 6 6 7 9 10 12 11 10 9 8 7 5 4 4 4 2 360 359 356 350 349 349 340 323 285 237 225 223 222 222 217 212 209 210 215 220 218 215 217 217 217 219 212 203 204 205 202 197 194 183 165 157 156 154 153 162 174 181 185
5 5 5 5 6 7 6 5 5 6 8 9 7 5 4 2 0 358 357 356 357 358 358 353 345 342 338 331 319 280 240 227 221 220 223 223 219 216 216 220 220 217 217 218 218 218 211 202 199 200 200 199 197 188 171 165 169 171 169 167 166 167 169